DW4300 Weather Reports


time (UTC)temp
C
wind
direction
speed
KPH
gust
KPH
rain 1hr
cm
rain 24hr
cm
rain mn
cm
humidity
%
barometer
mb
20260505153226 10 36 24.1 33.8 0.05 0.66 0.66 87 1007.4
20260505152723 10 37 22.5 33.8 0.08 0.66 0.66 88 1007.3
20260505151726 10 37 19.3 29.0 0.10 0.66 0.66 88 1007.1
20260505151224 10 36 19.3 29.0 0.13 0.66 0.66 88 1007.0
20260505150226 10 27 20.9 29.0 0.33 0.66 0.66 88 1007.1
20260505140226 11 331 6.4 30.6 0.13 0.30 0.30 85 1009.5
20260505130226 11 346 14.5 24.1 0.03 0.18 0.18 86 1007.1
20260505124725 12 4 12.9 22.5 0.03 0.15 0.15 85 1006.8
20260505123225 12 355 9.7 19.3 0.03 0.15 0.15 84 1007.1
20260505122724 12 9 12.9 19.3 0.03 0.15 0.15 85 1007.1
20260505122223 12 15 16.1 25.7 0.03 0.15 0.15 84 1006.8
20260505121224 13 10 16.1 22.5 0.03 0.15 0.15 84 1006.6
20260505120724 13 14 19.3 30.6 0.03 0.15 0.15 84 1006.3
20260505120225 13 17 24.1 33.8 0.03 0.15 0.15 83 1006.1
20260505115724 13 15 22.5 33.8 0.03 0.15 0.15 84 1005.7
20260505115223 14 9 16.1 25.7 0.03 0.15 0.15 86 1006.2
20260505114726 14 357 12.9 22.5 0.00 0.13 0.13 86 1006.4
20260505114224 14 345 14.5 27.4 0.00 0.13 0.13 86 1006.3
20260505113723 14 339 14.5 27.4 0.00 0.13 0.13 85 1006.4
20260505113226 15 336 16.1 27.4 0.00 0.13 0.13 86 1006.2
20260505112723 15 330 14.5 25.7 0.00 0.13 0.13 86 1006.2
20260505112224 15 329 14.5 27.4 0.00 0.13 0.13 86 1006.0
20260505111224 15 339 14.5 27.4 0.00 0.13 0.13 86 1005.6
20260505110226 15 336 11.3 20.9 0.00 0.13 0.13 86 1005.9
20260505101223 15 169 3.2 8.0 0.00 0.13 0.13 84 1004.8
20260505100724 15 172 4.8 11.3 0.00 0.13 0.13 84 1004.8
20260505100225 15 164 4.8 11.3 0.00 0.13 0.13 84 1004.7
20260505095723 15 170 4.8 8.0 0.00 0.13 0.13 84 1004.6
20260505095224 15 183 4.8 8.0 0.00 0.13 0.13 84 1004.7
20260505094725 15 170 4.8 11.3 0.00 0.13 0.13 85 1004.5
20260505093225 15 174 6.4 11.3 0.00 0.13 0.13 85 1004.6
20260505092723 15 164 6.4 11.3 0.00 0.13 0.13 85 1004.5
20260505092224 15 172 8.0 16.1 0.00 0.13 0.13 85 1004.6
20260505091725 15 170 9.7 16.1 0.00 0.13 0.13 86 1004.9
20260505091224 15 167 9.7 16.1 0.00 0.13 0.13 86 1004.9
20260505090226 15 160 6.4 12.9 0.00 0.13 0.13 86 1004.8
20260505085723 15 152 4.8 11.3 0.00 0.15 0.13 85 1004.7
20260505085224 15 158 3.2 8.0 0.03 0.15 0.13 85 1005.0
20260505084725 15 159 1.6 8.0 0.03 0.15 0.13 85 1005.2
20260505084223 15 164 3.2 8.0 0.08 0.15 0.13 85 1005.0
20260505083724 15 169 3.2 8.0 0.13 0.15 0.13 85 1004.9
20260505083225 15 185 3.2 6.4 0.13 0.15 0.13 84 1004.8
20260505082723 15 187 3.2 6.4 0.13 0.15 0.13 84 1004.9
20260505082223 15 179 1.6 6.4 0.13 0.15 0.13 83 1004.9
20260505081726 16 189 1.6 4.8 0.13 0.15 0.13 81 1004.8
20260505081223 16 214 0.0 4.8 0.13 0.15 0.13 79 1005.0
20260505080723 16 280 0.0 1.6 0.13 0.15 0.13 77 1005.1
20260505080225 17 295 0.0 4.8 0.13 0.15 0.13 75 1005.4
20260505075223 17 322 6.4 24.1 0.10 0.13 0.10 73 1006.2
20260505074725 18 321 11.3 37.0 0.10 0.15 0.10 72 1006.4
20260505074224 19 316 9.7 37.0 0.05 0.10 0.05 70 1006.5
20260505073723 20 295 6.4 27.4 0.00 0.05 0.00 69 1006.4
20260505073225 20 312 11.3 33.8 0.00 0.10 0.00 69 1006.4
20260505072723 19 324 12.9 33.8 0.00 0.18 0.00 69 1006.0
20260505072223 20 298 12.9 25.7 0.00 0.23 0.00 69 1005.9
20260505071725 20 237 14.5 25.7 0.00 0.23 0.00 67 1005.8
20260505071223 20 211 16.1 29.0 0.00 0.23 0.00 67 1004.2
20260505070723 20 208 17.7 32.2 0.00 0.25 0.00 67 1004.2
20260505070225 20 208 17.7 32.2 0.00 0.25 0.00 67 1004.1
20260505065723 20 209 17.7 29.0 0.00 0.25 0.00 67 1004.1
20260505065223 20 210 17.7 32.2 0.00 0.28 0.00 67 1004.2
20260505064726 20 209 17.7 32.2 0.00 0.30 0.00 67 1004.1
20260505063225 20 205 17.7 35.4 0.00 0.46 0.00 66 1003.4
20260505062223 20 203 20.9 35.4 0.00 0.51 0.00 66 1003.3
20260505061224 20 203 24.1 38.6 0.00 0.51 0.00 66 1003.3
20260505060224 20 207 22.5 40.2 0.00 0.51 0.00 65 1003.5
20260505055723 20 209 20.9 33.8 0.00 0.51 0.00 65 1003.6
20260505055224 20 208 22.5 41.8 0.00 0.51 0.00 65 1003.4
20260505054223 20 208 22.5 45.1 0.00 0.51 0.00 64 1003.4
20260505053225 20 206 20.9 33.8 0.00 0.51 0.00 64 1003.3
20260505052224 20 207 20.9 41.8 0.00 0.51 0.00 64 1003.2
20260505051725 20 209 20.9 41.8 0.00 0.51 0.00 64 1003.2
20260505051224 21 208 22.5 37.0 0.00 0.51 0.51 64 1003.2
20260505050723 21 206 24.1 37.0 0.00 0.51 0.51 63 1003.0
20260505050225 21 203 22.5 38.6 0.00 0.51 0.51 63 1002.9
20260505041725 21 202 22.5 37.0 0.00 0.51 0.51 62 1002.8
20260505041224 21 201 24.1 43.5 0.00 0.51 0.51 62 1003.0
20260505040723 21 199 24.1 43.5 0.00 0.51 0.51 62 1002.9
20260505035723 21 198 24.1 40.2 0.00 0.51 0.51 62 1002.9
20260505035223 21 195 22.5 38.6 0.00 0.51 0.51 62 1003.0
20260505034725 21 199 20.9 37.0 0.00 0.51 0.51 62 1002.9
20260505034223 21 204 20.9 37.0 0.00 0.51 0.51 62 1002.9
20260505033724 21 198 20.9 30.6 0.00 0.51 0.51 62 1002.9
20260505033225 21 192 22.5 38.6 0.00 0.51 0.51 62 1002.9
20260505032724 21 194 22.5 38.6 0.00 0.51 0.51 62 1002.9
20260505031725 21 196 20.9 33.8 0.00 0.51 0.51 61 1003.1
20260505031223 21 196 19.3 33.8 0.00 0.51 0.51 61 1003.1
20260505030724 21 193 20.9 43.5 0.00 0.51 0.51 61 1003.0
20260505030225 21 187 24.1 43.5 0.00 0.51 0.51 60 1002.9
20260505025723 21 190 24.1 41.8 0.00 0.51 0.51 60 1002.8
20260505024725 21 190 22.5 45.1 0.00 0.51 0.51 60 1002.8
20260505024223 22 191 24.1 45.1 0.00 0.51 0.51 59 1002.7
20260505023723 22 190 24.1 43.5 0.00 0.51 0.51 59 1002.7
20260505023225 22 188 24.1 45.1 0.00 0.51 0.51 58 1002.7
20260505022723 22 187 25.7 45.1 0.00 0.51 0.51 58 1002.5
20260505022224 22 189 27.4 43.5 0.00 0.51 0.51 58 1002.5
20260505021725 22 188 25.7 48.3 0.00 0.51 0.51 57 1002.4
20260505021223 22 188 24.1 48.3 0.00 0.51 0.51 57 1002.3
20260505020724 22 188 24.1 48.3 0.00 0.51 0.51 57 1002.2
20260505020225 22 188 24.1 43.5 0.00 0.51 0.51 57 1002.2
20260505015723 22 187 25.7 53.1 0.00 0.51 0.51 56 1002.0
20260505014725 22 187 27.4 41.8 0.00 0.51 0.51 55 1002.0
20260505014223 22 188 25.7 41.8 0.00 0.51 0.51 55 1002.0
20260505013723 22 188 22.5 35.4 0.00 0.51 0.51 55 1002.0
20260505013225 22 188 22.5 38.6 0.00 0.51 0.51 55 1002.0
20260505012723 22 187 24.1 38.6 0.00 0.51 0.51 55 1002.1
20260505011724 22 186 25.7 40.2 0.00 0.51 0.51 54 1001.9
20260505011223 23 185 27.4 46.7 0.00 0.51 0.51 54 1001.8
20260505010724 23 179 27.4 46.7 0.00 0.51 0.51 54 1001.6
20260505010225 22 175 27.4 41.8 0.00 0.51 0.51 54 1001.4
20260505005723 23 174 27.4 41.8 0.00 0.51 0.51 54 1001.5
20260505005223 22 176 25.7 41.8 0.00 0.51 0.51 54 1001.4
20260505003723 22 187 22.5 41.8 0.00 0.51 0.51 55 1001.8
20260505003225 22 179 24.1 41.8 0.00 0.51 0.51 55 1001.4
20260505002722 23 188 20.9 37.0 0.00 0.51 0.51 53 1001.9
20260505002223 23 190 19.3 37.0 0.00 0.51 0.51 52 1002.2
20260505001725 23 190 19.3 37.0 0.00 0.51 0.51 52 1002.1
20260505001223 23 191 19.3 33.8 0.00 0.51 0.51 51 1002.1
20260505000723 23 193 19.3 33.8 0.00 0.51 0.51 52 1001.9
20260505000226 23 193 20.9 33.8 0.00 0.51 0.51 52 1001.7
20260504235723 23 191 22.5 43.5 0.00 0.51 0.51 51 1001.7
20260504235223 23 189 24.1 45.1 0.00 0.51 0.51 51 1001.6
20260504234725 23 189 25.7 46.7 0.00 0.51 0.51 50 1001.6
20260504234223 23 191 25.7 46.7 0.00 0.51 0.51 51 1001.5
20260504233724 23 193 25.7 48.3 0.00 0.51 0.51 50 1001.5
20260504232722 23 190 25.7 48.3 0.00 0.51 0.51 50 1001.7
20260504232223 24 194 27.4 48.3 0.00 0.51 0.51 49 1001.8
20260504231724 24 191 25.7 41.8 0.00 0.51 0.51 49 1001.8
20260504231223 24 192 24.1 40.2 0.00 0.51 0.51 49 1001.9
20260504230224 24 190 29.0 48.3 0.00 0.51 0.51 48 1002.0
20260504225223 24 190 30.6 54.7 0.00 0.51 0.51 49 1002.0
20260504224725 24 189 30.6 46.7 0.00 0.51 0.51 48 1002.0
20260504224223 24 188 27.4 49.9 0.00 0.51 0.51 49 1002.0
20260504223224 24 193 29.0 46.7 0.00 0.51 0.51 50 1002.0
20260504222723 23 194 25.7 46.7 0.00 0.51 0.51 50 1002.1
20260504222224 23 195 24.1 45.1 0.00 0.51 0.51 50 1002.0
20260504221725 23 193 24.1 45.1 0.00 0.51 0.51 50 1002.2
20260504221223 23 191 24.1 41.8 0.00 0.51 0.51 50 1002.0
20260504220723 23 190 22.5 38.6 0.00 0.51 0.51 51 1002.0
20260504220224 23 187 24.1 54.7 0.00 0.51 0.51 53 1001.9
20260504215723 23 186 25.7 54.7 0.00 0.51 0.51 51 1001.8
20260504215223 23 185 27.4 49.9 0.00 0.51 0.51 52 1001.8
20260504214725 23 183 29.0 49.9 0.00 0.51 0.51 52 1001.7
20260504214223 23 178 29.0 43.5 0.00 0.51 0.51 52 1001.8
20260504213722 23 179 29.0 46.7 0.00 0.51 0.51 53 1001.8
20260504213225 23 181 29.0 53.1 0.00 0.51 0.51 52 1001.9
20260504212723 23 181 32.2 53.1 0.00 0.51 0.51 55 1002.0
20260504212223 22 183 32.2 53.1 0.00 0.51 0.51 55 1002.3
20260504211724 22 183 30.6 53.1 0.00 0.51 0.51 55 1002.6
20260504211223 22 186 27.4 48.3 0.00 0.51 0.51 58 1002.8
20260504210723 22 184 24.1 45.1 0.00 0.51 0.51 61 1002.9
20260504210224 22 179 25.7 40.2 0.00 0.51 0.51 61 1002.8
20260504205723 22 179 27.4 40.2 0.00 0.51 0.51 60 1002.7
20260504205223 22 176 29.0 43.5 0.00 0.51 0.51 60 1002.5
20260504204223 21 172 32.2 49.9 0.00 0.51 0.51 60 1002.3
20260504203722 21 174 35.4 69.2 0.00 0.51 0.51 62 1002.2
20260504203225 22 177 33.8 69.2 0.00 0.51 0.51 59 1002.3
20260504202723 21 174 35.4 57.9 0.00 0.51 0.51 62 1002.1
20260504202223 20 174 38.6 57.9 0.00 0.51 0.51 67 1002.3
20260504201724 20 177 32.2 51.5 0.00 0.51 0.51 67 1002.8
20260504201222 20 179 25.7 48.3 0.00 0.51 0.51 69 1003.7
20260504200723 20 185 19.3 33.8 0.00 0.51 0.51 70 1004.7
20260504200224 20 183 17.7 27.4 0.00 0.51 0.51 73 1005.0
20260504195723 19 185 14.5 25.7 0.00 0.51 0.51 74 1004.7
20260504195223 19 189 12.9 17.7 0.00 0.51 0.51 75 1004.9
20260504194724 19 186 11.3 17.7 0.00 0.51 0.51 75 1004.9
20260504194223 19 193 9.7 14.5 0.00 0.51 0.51 76 1004.9
20260504193722 19 185 8.0 16.1 0.00 0.51 0.51 76 1005.3
20260504193225 19 179 8.0 16.1 0.00 0.51 0.51 76 1005.3
20260504192723 19 184 4.8 9.7 0.00 0.51 0.51 76 1005.5
20260504191725 20 217 0.0 4.8 0.00 0.51 0.51 70 1006.0
20260504190722 20 226 1.6 4.8 0.00 0.51 0.51 69 1006.5
20260504190224 20 226 3.2 6.4 0.00 0.51 0.51 69 1006.4
20260504185222 20 228 6.4 12.9 0.00 0.51 0.51 68 1006.2
20260504184725 20 229 6.4 14.5 0.00 0.51 0.51 67 1006.2
20260504183723 21 221 9.7 22.5 0.00 0.51 0.51 67 1005.5
20260504182723 21 208 16.1 32.2 0.00 0.51 0.51 66 1005.3
20260504182222 21 201 19.3 33.8 0.00 0.51 0.51 66 1004.7
20260504181724 21 190 16.1 33.8 0.00 0.51 0.51 64 1004.0
20260504181222 21 174 17.7 32.2 0.00 0.51 0.51 65 1003.3
20260504180722 21 183 24.1 40.2 0.00 0.51 0.51 67 1003.8
20260504180224 21 188 27.4 45.1 0.00 0.51 0.51 66 1004.2
20260504175723 21 192 24.1 45.1 0.00 0.51 0.51 65 1004.4
20260504175222 21 198 20.9 37.0 0.00 0.51 0.51 65 1004.8
20260504174725 21 203 19.3 35.4 0.00 0.51 0.51 65 1005.0
20260504173723 21 202 19.3 35.4 0.00 0.51 0.51 64 1005.0
20260504173224 21 199 19.3 35.4 0.00 0.51 0.51 65 1004.9
20260504172723 21 196 22.5 38.6 0.00 0.51 0.51 64 1005.0
20260504172223 21 198 22.5 38.6 0.00 0.51 0.51 63 1004.9
20260504171725 21 202 20.9 33.8 0.00 0.51 0.51 63 1004.9
20260504171222 21 200 22.5 41.8 0.00 0.51 0.51 64 1005.0
20260504170723 21 195 24.1 41.8 0.00 0.51 0.51 63 1004.9
20260504170224 21 193 22.5 38.6 0.00 0.51 0.51 64 1005.0
20260504160224 21 199 19.3 32.2 0.00 0.51 0.51 63 1006.2